[[{"header":{"parameterUnit":"m.s-1","parameterCategory":1,"la1":30.2991,"la2":30.254,"lo1":-89.0895,"lo2":-89.0444,"dy":0.0017,"dx":0.0017,"nx":28,"ny":28,"refTime":"2025-03-20T09:00:00:Z","depth":0,"parameterNumber":2,"parameterNumberName":"U-component_of_WINDS"},"data":[0,0,0,0,0,0,0,0,0,0,0,0,0,0,0,0,0,0,0,0,0,0,0,0,0,0,0,0,0,0,0,0,0,0,0,0,0,0,0,0,0,0,0,0,0,0,0,0,0,0,0,0,0,0,0,0,0,0,-3.6153,-3.6153,0,-3.6166,-3.6166,-3.6166,-3.6113,-3.6112,-3.611,-3.6109,-3.6121,-3.6123,-3.6124,0,0,0,0,0,0,0,0,0,0,0,0,0,-3.6082,-3.6083,-3.6153,-3.6153,-3.6153,-3.6166,-3.6166,-3.6166,-3.6113,-3.6112,-3.611,-3.6108,-3.612,-3.6122,-3.6124,0,0,0,0,0,0,0,0,0,0,0,0,0,-3.6105,-3.6084,-3.6153,-3.6128,-3.6126,-3.6166,-3.6166,-3.6166,-3.6114,-3.6111,-3.6109,-3.6107,-3.612,-3.6122,-3.6125,-3.6188,0,0,-3.6133,-3.6134,0,0,0,0,0,0,0,0,-3.6104,-3.6108,-3.6132,-3.613,-3.6128,-3.6136,-3.6145,-3.6174,-3.6114,-3.6119,-3.6109,-3.6106,-3.6128,-3.6129,-3.6137,-3.6189,-3.6189,-3.6133,-3.6135,-3.6136,-3.6137,0,0,0,0,0,0,0,-3.6102,-3.6107,-3.6158,-3.6132,-3.613,-3.6117,-3.6117,-3.615,-3.6136,-3.6118,-3.6114,-3.6117,-3.6126,-3.6134,-3.6137,-3.6189,-3.6133,-3.6135,-3.6137,-3.6138,-3.6294,-3.6296,0,0,0,0,0,0,-3.6104,-3.6106,-3.6157,-3.6158,-3.611,-3.612,-3.6121,-3.6135,-3.6135,-3.6133,-3.6119,-3.6114,-3.6131,-3.6134,-3.6137,-3.6211,-3.6136,-3.6138,-3.614,-3.6291,-3.6294,-3.6297,0,0,0,0,0,0,-3.6103,-3.6109,-3.6157,-3.6131,-3.6136,-3.6123,-3.6141,-3.6137,-3.6145,-3.6136,-3.6133,-3.613,-3.6129,-3.6133,-3.6176,-3.6211,-3.614,-3.6142,-3.6288,-3.6292,-3.6296,-3.636,0,0,0,0,0,0,-3.6101,-3.6109,-3.6133,-3.6132,-3.6138,-3.6196,-3.6143,-3.6139,-3.615,-3.6144,-3.6146,-3.6144,-3.6128,-3.6172,-3.6179,-3.6213,-3.6144,-3.6285,-3.629,-3.6294,-3.6354,-3.6365,-3.6375,0,0,0,0,0,-3.6099,-3.615,-3.6135,-3.6141,-3.6168,-3.6198,-3.6201,-3.6182,-3.6153,-3.6177,-3.6171,-3.6144,-3.6206,-3.6177,-3.6184,-3.622,-3.6283,-3.6288,-3.6294,-3.635,-3.6363,-3.6374,0,0,0,0,0,0,-3.6155,-3.615,-3.6132,-3.6185,-3.6193,-3.6189,-3.6219,-3.6197,-3.6212,-3.6206,-3.6182,-3.6182,-3.6229,-3.6229,-3.6196,-3.6281,-3.6239,-3.6247,-3.628,-3.6292,-3.6302,-3.6301,-3.6146,0,0,0,0,0,-3.6174,-3.6199,-3.6193,-3.6241,-3.6245,-3.6232,-3.6244,-3.6229,-3.6235,-3.6238,-3.6235,-3.6242,-3.6263,-3.6278,-3.6296,-3.6354,-3.6354,-3.6382,-3.6392,-3.6401,-3.6407,-3.6438,-3.645,-3.6316,-3.6316,-3.6315,0,0,-3.6213,-3.6213,-3.623,-3.6252,-3.6256,-3.6283,-3.6234,-3.6265,-3.6284,-3.6242,-3.6282,-3.6281,-3.6287,-3.6338,-3.636,-3.6338,-3.6444,-3.6408,-3.6415,-3.6417,-3.6445,-3.6458,-3.6469,-3.6319,-3.6319,-3.6318,0,0,-3.6297,-3.63,-3.634,-3.6345,-3.6352,-3.6342,-3.6352,-3.6352,-3.6349,-3.6389,-3.6359,-3.6381,-3.6418,-3.6424,-3.6432,-3.6519,-3.6495,-3.6526,-3.6578,-3.6609,-3.6619,-3.6628,-3.6659,-3.6671,-3.6533,-3.6533,-3.6533,0,-3.6344,-3.6383,-3.6363,-3.6395,-3.6406,-3.637,-3.641,-3.6416,-3.6428,-3.6436,-3.6413,-3.6459,-3.646,-3.6512,-3.6533,-3.6541,-3.6551,-3.6526,-3.6619,-3.6628,-3.6637,-3.6666,-3.6678,-3.6537,-3.6536,-3.6536,-3.6536,0,-3.6441,-3.6469,-3.65,-3.6514,-3.6528,-3.6564,-3.6549,-3.6565,-3.6549,-3.6542,-3.6584,-3.6584,-3.6603,-3.6614,-3.6598,-3.6664,-3.665,-3.6624,-3.6581,-3.6654,-3.6681,-3.6692,-3.6542,-3.6541,-3.654,-3.6539,0,0,-3.656,-3.6563,-3.6574,-3.658,-3.6586,-3.6606,-3.6641,-3.666,-3.6674,-3.6685,-3.6713,-3.6745,-3.6721,-3.673,-3.6714,-3.6741,-3.681,-3.6711,-3.6711,-3.6729,-3.6882,-3.6902,-3.6915,-3.6794,-3.6796,-3.6798,-3.6881,0,-3.6642,-3.6702,-3.6685,-3.6745,-3.677,-3.6737,-3.6767,-3.6773,-3.6768,-3.6789,-3.6783,-3.6806,-3.6772,-3.6777,-3.6802,-3.6796,-3.684,-3.679,-3.682,-3.6821,-3.6819,-3.6929,-3.695,-3.7029,-3.6892,-3.6893,-3.6895,0,-3.6746,-3.6761,-3.6824,-3.6825,-3.6835,-3.6862,-3.6878,-3.6899,-3.6905,-3.69,-3.691,-3.689,-3.6924,-3.6882,-3.6928,-3.6894,-3.6905,-3.6904,-3.6907,-3.6909,-3.6862,-3.6933,-3.7053,-3.7065,-3.6911,-3.691,-3.6909,0,-3.6827,-3.6862,-3.6904,-3.691,-3.6913,-3.6933,-3.6935,-3.694,-3.6952,-3.6966,-3.6974,-3.6992,-3.7001,-3.7015,-3.7,-3.6971,-3.7049,-3.7005,-3.7045,-3.7045,-3.7062,-3.7061,-3.7185,-3.707,-3.707,-3.707,-3.7069,0,-3.692,-3.696,-3.6941,-3.6966,-3.701,-3.699,-3.7033,-3.7031,-3.7035,-3.706,-3.7032,-3.7056,-3.7035,-3.7057,-3.7045,-3.7085,-3.7089,-3.7086,-3.7082,-3.7088,-3.7088,-3.7094,-3.7088,-3.7073,-3.7072,-3.7071,-3.7071,0,-3.7017,-3.7006,-3.705,-3.7049,-3.705,-3.7082,-3.7081,-3.7105,-3.7098,-3.7129,-3.7136,-3.7125,-3.7149,-3.7135,-3.716,-3.7152,-3.7204,-3.7193,-3.7202,-3.7199,-3.7239,-3.7235,-3.7371,-3.7387,-3.7262,-3.7263,-3.7264,0,-3.7077,-3.7107,-3.711,-3.7125,-3.7129,-3.7153,-3.7166,-3.7148,-3.7162,-3.7172,-3.7195,-3.7217,-3.7233,-3.7273,-3.7267,-3.7286,-3.7275,-3.7322,-3.7278,-3.7283,-3.7276,-3.7274,-3.7277,-3.733,-3.7332,-3.7333,-3.7334,0,-3.7185,-3.7178,-3.7198,-3.7217,-3.7233,-3.7246,-3.7257,-3.7271,-3.7252,-3.727,-3.7295,-3.7308,-3.7333,-3.7355,-3.7372,-3.7373,-3.7351,-3.7348,-3.7358,-3.7364,-3.7367,-3.7366,-3.7226,-3.7345,-3.7343,-3.7343,-3.7342,-3.7342,-3.7265,-3.729,-3.7296,-3.7319,-3.7326,-3.7337,-3.7359,-3.7356,-3.7376,-3.7396,-3.7384,-3.7413,-3.7419,-3.7438,-3.7443,-3.7465,-3.7447,-3.7461,-3.7465,-3.7469,-3.7474,-3.7365,-3.7468,-3.7468,-3.7468,-3.7467,-3.7467,0,-3.7371,-3.7374,-3.7395,-3.7412,-3.743,-3.7408,-3.7419,-3.7436,-3.7462,-3.747,-3.7487,-3.7515,-3.7537,-3.7533,-3.7553,-3.7571,-3.7561,-3.7577,-3.7575,-3.7576,-3.749,-3.7479,-3.7584,-3.7584,-3.7584,-3.7584,-3.7584,-3.7584,-3.7429,-3.747,-3.7464,-3.7508,-3.751,-3.7538,-3.7547,-3.7557,-3.7563,-3.7596,-3.7614,-3.7612,-3.7615,-3.7635,-3.7653,-3.7651,-3.766,-3.7679,-3.7674,-3.7593,-3.7582,-3.7571,-3.756,-3.7681,-3.7681,-3.7758,-3.7758,-3.7759]},{"header":{"parameterUnit":"m.s-1","parameterCategory":1,"la1":30.2991,"la2":30.254,"lo1":-89.0895,"lo2":-89.0444,"dy":0.0017,"dx":0.0017,"nx":28,"ny":28,"refTime":"2025-03-20T09:00:00:Z","depth":0,"parameterNumber":3,"parameterNumberName":"V-component_of_WINDS"},"data":[0,0,0,0,0,0,0,0,0,0,0,0,0,0,0,0,0,0,0,0,0,0,0,0,0,0,0,0,0,0,0,0,0,0,0,0,0,0,0,0,0,0,0,0,0,0,0,0,0,0,0,0,0,0,0,0,0,0,-1.469,-1.469,0,-1.4705,-1.4706,-1.4706,-1.4679,-1.4678,-1.4677,-1.4676,-1.4693,-1.4694,-1.4695,0,0,0,0,0,0,0,0,0,0,0,0,0,-1.4637,-1.4638,-1.469,-1.469,-1.469,-1.4705,-1.4706,-1.4706,-1.4679,-1.4678,-1.4677,-1.4676,-1.4692,-1.4694,-1.4695,0,0,0,0,0,0,0,0,0,0,0,0,0,-1.4657,-1.4639,-1.469,-1.4679,-1.4678,-1.4705,-1.4706,-1.4706,-1.4679,-1.4678,-1.4676,-1.4675,-1.4692,-1.4694,-1.4696,-1.4735,0,0,-1.4702,-1.4702,0,0,0,0,0,0,0,0,-1.4656,-1.4659,-1.468,-1.468,-1.4679,-1.4689,-1.4693,-1.4716,-1.468,-1.4679,-1.4676,-1.4675,-1.4693,-1.4694,-1.47,-1.4736,-1.4736,-1.4702,-1.4703,-1.4704,-1.4704,0,0,0,0,0,0,0,-1.4655,-1.4658,-1.4696,-1.4681,-1.468,-1.4673,-1.4674,-1.4697,-1.4693,-1.4679,-1.4677,-1.4679,-1.4692,-1.4699,-1.4701,-1.4737,-1.4702,-1.4703,-1.4705,-1.4705,-1.4804,-1.4806,0,0,0,0,0,0,-1.4655,-1.4657,-1.4696,-1.4697,-1.4664,-1.4675,-1.4676,-1.4687,-1.4693,-1.4692,-1.468,-1.4678,-1.4696,-1.4698,-1.4701,-1.4747,-1.4704,-1.4706,-1.4707,-1.4803,-1.4805,-1.4806,0,0,0,0,0,0,-1.4654,-1.4658,-1.4695,-1.4676,-1.4681,-1.4677,-1.4689,-1.4688,-1.4695,-1.4694,-1.4693,-1.4688,-1.4695,-1.4698,-1.4727,-1.4747,-1.4706,-1.4708,-1.4801,-1.4804,-1.4806,-1.484,0,0,0,0,0,0,-1.4652,-1.4658,-1.4673,-1.4677,-1.4682,-1.472,-1.4691,-1.4689,-1.4698,-1.4695,-1.4701,-1.47,-1.4694,-1.4724,-1.4728,-1.4749,-1.471,-1.4799,-1.4802,-1.4805,-1.4837,-1.4843,-1.4848,0,0,0,0,0,-1.465,-1.4682,-1.4674,-1.4679,-1.47,-1.4722,-1.4724,-1.4716,-1.47,-1.4715,-1.4714,-1.47,-1.4744,-1.4727,-1.4732,-1.4754,-1.4798,-1.4801,-1.4805,-1.4834,-1.4842,-1.4848,0,0,0,0,0,0,-1.4682,-1.4683,-1.4673,-1.4708,-1.4715,-1.4717,-1.4736,-1.4724,-1.4737,-1.4733,-1.4723,-1.4724,-1.4755,-1.4757,-1.4738,-1.4792,-1.4768,-1.4773,-1.4789,-1.4796,-1.4802,-1.4801,-1.4711,0,0,0,0,0,-1.4692,-1.4709,-1.471,-1.474,-1.4744,-1.4739,-1.4748,-1.4741,-1.4748,-1.4751,-1.4753,-1.476,-1.4775,-1.4786,-1.48,-1.4837,-1.4838,-1.4854,-1.486,-1.4864,-1.4869,-1.4888,-1.4895,-1.4817,-1.4817,-1.4817,0,0,-1.4715,-1.4718,-1.4729,-1.4746,-1.4751,-1.4769,-1.4742,-1.4762,-1.4775,-1.4754,-1.4781,-1.4782,-1.479,-1.4822,-1.4837,-1.4825,-1.489,-1.4869,-1.4872,-1.4874,-1.4892,-1.4899,-1.4906,-1.4819,-1.4819,-1.4819,0,0,-1.4765,-1.4769,-1.4794,-1.4799,-1.4806,-1.4803,-1.4809,-1.4813,-1.4813,-1.4839,-1.4824,-1.4839,-1.4866,-1.4872,-1.4879,-1.493,-1.4918,-1.4935,-1.4965,-1.4984,-1.499,-1.4995,-1.5014,-1.502,-1.4939,-1.4939,-1.4939,0,-1.4792,-1.4819,-1.4809,-1.483,-1.4838,-1.4819,-1.4844,-1.485,-1.4861,-1.4867,-1.4854,-1.4887,-1.489,-1.4924,-1.4936,-1.4942,-1.4949,-1.4935,-1.499,-1.4995,-1.5,-1.5017,-1.5024,-1.4941,-1.4941,-1.4941,-1.4941,0,-1.4852,-1.487,-1.489,-1.4901,-1.4911,-1.4934,-1.4928,-1.4939,-1.4931,-1.4929,-1.4956,-1.4959,-1.4974,-1.4981,-1.4974,-1.5013,-1.5006,-1.4991,-1.4968,-1.501,-1.5026,-1.5032,-1.4944,-1.4943,-1.4943,-1.4942,0,0,-1.4923,-1.4928,-1.4935,-1.4939,-1.4946,-1.496,-1.4982,-1.4995,-1.5005,-1.5014,-1.5032,-1.5054,-1.5041,-1.5048,-1.5041,-1.5058,-1.5098,-1.5041,-1.5041,-1.5052,-1.5142,-1.5153,-1.5161,-1.509,-1.5091,-1.5092,-1.5141,0,-1.4973,-1.5011,-1.5002,-1.504,-1.5056,-1.5038,-1.5057,-1.5063,-1.5062,-1.5076,-1.5074,-1.509,-1.5071,-1.5075,-1.5091,-1.509,-1.5116,-1.5086,-1.5107,-1.5108,-1.5106,-1.5169,-1.5181,-1.5227,-1.5147,-1.5148,-1.5149,0,-1.5036,-1.5046,-1.5086,-1.5088,-1.5095,-1.5112,-1.5124,-1.5137,-1.5143,-1.5141,-1.5149,-1.5139,-1.516,-1.5136,-1.5166,-1.5146,-1.5154,-1.5154,-1.5156,-1.5158,-1.5131,-1.5173,-1.5242,-1.5249,-1.5159,-1.5158,-1.5158,0,-1.5084,-1.5107,-1.5134,-1.5138,-1.5142,-1.5155,-1.5157,-1.5162,-1.517,-1.518,-1.5186,-1.5198,-1.5205,-1.5215,-1.5208,-1.5192,-1.5239,-1.5215,-1.5238,-1.5238,-1.5249,-1.5249,-1.5321,-1.5254,-1.5254,-1.5254,-1.5254,0,-1.514,-1.5165,-1.5155,-1.5171,-1.5198,-1.5188,-1.5215,-1.5215,-1.5219,-1.5235,-1.522,-1.5235,-1.5225,-1.524,-1.5234,-1.526,-1.5263,-1.5262,-1.526,-1.5263,-1.5264,-1.5269,-1.5265,-1.5256,-1.5255,-1.5255,-1.5255,0,-1.5199,-1.5193,-1.522,-1.5222,-1.5223,-1.5242,-1.5243,-1.5258,-1.5255,-1.5276,-1.528,-1.5275,-1.5291,-1.5285,-1.5303,-1.5299,-1.5331,-1.5326,-1.5329,-1.5328,-1.5352,-1.535,-1.543,-1.544,-1.5366,-1.5367,-1.5368,0,-1.5235,-1.5254,-1.5257,-1.5266,-1.5269,-1.5285,-1.5293,-1.5284,-1.5293,-1.5301,-1.5315,-1.5329,-1.5341,-1.5367,-1.5366,-1.5379,-1.5373,-1.54,-1.5375,-1.5377,-1.5373,-1.5373,-1.5374,-1.5405,-1.5406,-1.5407,-1.5408,0,-1.5301,-1.5297,-1.531,-1.5321,-1.5332,-1.5341,-1.5348,-1.5357,-1.5347,-1.5359,-1.5375,-1.5383,-1.54,-1.5415,-1.5427,-1.5429,-1.5417,-1.5415,-1.5421,-1.5425,-1.5426,-1.5426,-1.5343,-1.5414,-1.5413,-1.5413,-1.5412,-1.5412,-1.5349,-1.5365,-1.5369,-1.5384,-1.5388,-1.5395,-1.5409,-1.5408,-1.5421,-1.5434,-1.5427,-1.5446,-1.5451,-1.5465,-1.5469,-1.5483,-1.5473,-1.5482,-1.5484,-1.5486,-1.5489,-1.5424,-1.5485,-1.5485,-1.5485,-1.5485,-1.5485,0,-1.5414,-1.5416,-1.5429,-1.544,-1.5451,-1.5438,-1.5446,-1.5456,-1.5473,-1.5478,-1.5489,-1.5507,-1.5521,-1.5521,-1.5534,-1.5545,-1.554,-1.5549,-1.5548,-1.5549,-1.5498,-1.5492,-1.5553,-1.5553,-1.5553,-1.5553,-1.5553,-1.5553,-1.5449,-1.5474,-1.5471,-1.5498,-1.55,-1.5517,-1.5523,-1.5529,-1.5533,-1.5554,-1.5566,-1.5565,-1.5568,-1.5581,-1.5593,-1.5592,-1.5598,-1.5609,-1.5607,-1.5559,-1.5552,-1.5546,-1.554,-1.561,-1.561,-1.5656,-1.5656,-1.5657]}]]